www.pogodaiklimat.ru

Погода и климат >> Архив погоды >> Россия >> Красноярский край >> Вельмо


ПОГОДА в Вельмо

  • Прогноз погоды в Вельмо
  • Монитор погоды в Вельмо
  • Климат города

АРХИВ ПОГОДЫ в Вельмо

Время (UTC), дата Ветер
(напр.,м/с)
 
Видим.   Явления Облачность Т
(С)
Тd
(С)
f
(%)
Тe
(С)
Тes
(С)
Комфортность P
(гПа)
Po
(гПа)
Тmin
(С)
Tmax
(С)
R
(мм)
R24
(мм)
S
(см)
09 12.11 ЮВ 2 3500 м снег {метель} 10/0 2000 м
[As op]
-20.1 -22.7 80 -26 -26 1019.8 1003.2
12 12.11 штиль 0 н/о снег {метель} 10/0 2000 м
[As op]
-20.2 -22.1 85 -20 -20 1019.8 1003.2 -19.8 2
15 12.11 С 1 н/о слабый снег 10/0
[Cs]
-21.8 -23.6 85 -25 -25 1018.7 1002.0
18 12.11 С 1 н/о слабый снег 10/0
[Cs]
-19.3 -21.2 85 -22 -22 1018.1 1001.5
21 12.11 штиль 0 н/о {снег} 10/0
[Cs]
-20.1 -22.0 85 -20 -20 1017.2 1000.6
00 13.11 С 1 н/о слабый снег 10/0 2000 м
[As op]
-19.4 -21.3 85 -22 -22 1017.2 1000.6 -21.8 1 25
03 13.11 штиль 0 10 км слабый снег 10/0 2000 м
[As op]
-18.9 -20.8 85 -19 -19 1016.9 1000.4
06 13.11 штиль 0 10 км слабый снег 10/0 2000 м
[As trans]
-17.2 -19.1 85 -17 -17 1017.5 1001.1
09 13.11 штиль 0 10 км слабый снег 10/0 2000 м
[As trans]
-16.4 -18.3 85 -16 -16 1018.7 1002.4
12 13.11 штиль 0 н/о слабый снег 10/0 2000 м
[As op]
-17.3 -19.2 85 -17 -17 1020.3 1003.8 -16.4 1
15 13.11 З 3 н/о {снег, метель} 6/0
[Ci fib]
-21.0 -22.9 85 -29 -29 1023.9 1007.2
18 13.11 штиль 0 н/о {снег, метель} ясно -25.7 -27.5 85 -26 -26 1025.7 1008.6
21 13.11 штиль 0 н/о ясно -30.1 -33.2 74 -30 -30 1027.0 1009.6
00 14.11 штиль 0 н/о 8/0
[Ci fib]
-28.1 -30.5 80 -28 -28 1026.5 1009.2 -30.5 0.0 27
03 14.11 штиль 0 10 км слабый ливневой снег 10/10 1000 м
[Cb cap]
-23.3 -25.1 85 -23 -23 1025.4 1008.4
06 14.11 СЗ 1 10 км слабый ливневой снег 10/6 1000 м
[Cb cap As op]
-18.5 -20.4 85 -21 -21 1022.7 1006.2
09 14.11 штиль 0 10 км слабый снег {ливн. осадки} 10/0 2000 м
[As op]
-16.2 -18.1 85 -16 -16 1020.7 1004.3
12 14.11 штиль 0 н/о снег {ливн. осадки} 10/0 2000 м
[As op]
-15.6 -17.5 85 -16 -16 1019.6 1003.2 -15.6 2
15 14.11 штиль 0 н/о снег 10/0 2000 м
[As op]
-16.5 -18.4 85 -17 -17 1017.7 1001.4
18 14.11 штиль 0 н/о слабый ливневой снег 10/10 1000 м
[Cb cap]
-15.0 -16.3 90 -15 -15 1015.6 999.4
21 14.11 штиль 0 н/о {ливн. осадки} 10/10 1000 м
[Cb cap]
-12.3 -13.6 90 -12 -12 1013.0 997.0
00 15.11 н/о слабый ливневой снег н/о -9.6 -10.8 91 -12 -12 1010.6 994.7 -16.5 3 35
03 15.11 штиль 0 3000 м ливневой снег {метель} 10/10 1000 м
[Cb cap]
-8.5 -9.2 95 -9 -9 1008.3 992.6
06 15.11 ЮЗ 3 1800 м ливневой снег 10/8 1000 м
[Cb cap As op]
-7.1 -8.8 88 -13 -13 1006.8 991.3
09 15.11 ЮЗ 4 10 км слабый ливневой снег {метель} 10/10 1000 м
[Cb cap]
-7.8 -10.5 81 -15 -15 1006.2 990.5
12 15.11 З 3 н/о в посл. час ливневой снег {метель} 10/3 1000 м
[Cb cap As op]
-8.3 -11.1 80 -14 -14 1010.2 994.5 -6.1 3
15 15.11 З 6-13
{14}
н/о слабый ливневой снег {метель} 6/6 1000 м
[Cb cap]
-9.2 -13.7 70 -18 -18 1013.0 997.1
18 15.11 З 4
{13}
н/о метель {ливн. осадки} 6/6 1000 м
[Cb cap]
-12.4 -15.9 75 -20 -20 1017.2 1001.1
21 15.11 З 4
{10}
н/о метель 3/3 1000 м
[Cb cap]
-15.1 -19.3 70 -23 -23 1019.8 1003.4
00 16.11 З 4 н/о слабый снег {метель} 10/0
[Cs]
-18.1 -21.4 75 -27 -27 1022.6 1006.1 -18.1 0.4 36
03 16.11 З 3
{10}
10 км слабый снег {метель} 10/0 2000 м
[As trans]
-18.8 -22.1 75 -26 -26 1023.7 1007.2 -18.8
06 16.11 З 4 10 км позёмок {снег, метель} 10/3 1000 м
[Cb calv Ci fib]
-18.4 -22.5 70 -27 -27 1025.6 1009.0
09 16.11 З 2 10 км слабый снег {метель} 10/0 2000 м
[As op]
-19.2 -22.5 75 -25 -25 1027.9 1011.2
12 16.11 З 2 н/о {снег, метель} ясно -20.4 -23.7 75 -26 -26 1030.4 1013.6 -18.1 0.3
15 16.11 СЗ 1 н/о 10/0
[Cs]
-25.5 -28.0 79 -29 -29 1033.5 1016.3
18 16.11 З 2 н/о слабый снег 10/0
[Cs]
-20.7 -24.0 75 -27 -27 1032.7 1015.9
21 16.11 ЮЗ 2 н/о {снег} 6/0
[Ci fib]
-21.8 -25.0 75 -28 -28 1033.0 1016.1
00 17.11 СЗ 1 н/о слабый снег 10/0
[Cs]
-24.4 -26.9 80 -28 -28 1032.8 1015.7 -27.1 0.3 33
03 17.11 С 1 20 км слабый снег 10/0 2000 м
[Ac trans Cs]
-22.0 -23.9 84 -25 -25 1031.1 1014.2
06 17.11 З 3 20 км слабый снег {метель} 10/0 2000 м
[Ac trans Cs]
-14.4 -17.1 80 -21 -21 1030.7 1014.3
09 17.11 ЮЗ 2 50 км {снег} 6/0 2000 м
[Ac trans Ci sp]
-17.4 -19.3 85 -23 -23 1030.0 1013.3
12 17.11 З 2 н/о {снег} 9/0 2000 м
[Ac trans]
-20.6 -22.5 85 -27 -27 1029.8 1013.0 -14.4 0.2
15 17.11 ЮЗ 5 н/о позёмок {метель} 9/0 2000 м
[Ac trans]
-18.6 -20.5 85 -28 -28 1028.6 1012.0
18 17.11 ЮЗ 3 н/о {метель} 10/0 2000 м
[As trans]
-19.7 -21.6 85 -27 -27 1029.4 1012.6
21 17.11 СЗ 1 н/о 10/0 2000 м
[As trans]
-20.2 -22.1 85 -23 -23 1028.0 1011.3
00 18.11 В 1 н/о 10/0 2000 м
[As op]
-21.3 -23.2 85 -24 -24 1027.9 1011.0 -21.3 33
03 18.11 штиль 0 20 км 9/0 2000 м
[Ac As]
-22.1 -24.0 84 -22 -22 1027.9 1011.0 -22.1
06 18.11 З 2 20 км слабый снег 9/0 2000 м
[Ac As]
-16.1 -18.8 80 -21 -21 1027.3 1010.8
09 18.11 ЮЗ 2 50 км {снег} 9/0 2000 м
[Ac As]
-15.0 -17.0 85 -20 -20 1026.6 1010.2
12 18.11 штиль 0 н/о {снег} 9/0 2000 м
[Ac As]
-17.5 -19.4 85 -18 -18 1025.8 1009.2 -14.7 0.0
15 18.11 штиль 0 н/о слабый снег 10/0 2000 м
[As trans]
-17.0 -18.9 85 -17 -17 1023.5 1007.1
18 18.11 СЗ 1 н/о слабый снег 10/0 2000 м
[As op]
-15.5 -17.4 85 -18 -18 1022.7 1006.3
21 18.11 З 2 н/о слабый снег 10/0 2000 м
[As op]
-16.3 -18.9 80 -22 -22 1022.0 1005.6
00 19.11 З 1 н/о слабый снег 10/0 2000 м
[As op]
-17.4 -20.0 80 -20 -20 1022.1 1005.6 -17.5 0.5 34
03 19.11 ЮЗ 2 20 км слабый снег 9/0 2000 м
[As op]
-18.0 -20.6 80 -23 -23 1021.8 1005.3 -18.0
06 19.11 З 2 20 км {снег} 8/0 2000 м
[Ac trans]
-17.6 -21.0 75 -23 -23 1022.6 1006.1

 

Местоположение метеостанции Вельмо (Красноярский край, Россия): широта 61.02 долгота 93.42 высота над уровнем моря 122 м.

В архиве по умолчанию представлена погода в Вельмо за последнюю неделю. Архивные данные за месяц целиком и за предыдущие месяцы, начиная с января 2011 года, Вы можете получить, выбрав интересующий диапазон дат из раскрывающегося списка и нажав кнопку "Ввод!".


*Определитесь, кто Вы:
робот инопланетянин человек

Внимание! Время в таблицах - всемирное. Для получения местного времени необходимо прибавить поправку, которая в Вельмо равна 7 ч.

Смотрите также архив погоды в соседних городах и на ближайших метеорологических станциях:

Погода в Северо-Енисейском (Красноярский край, Россия) (74 км)
Погода в Кузьмовке (Эвенкия, Россия) (160 км)
Погода в Байките (Эвенкия, Россия) (173 км)
Погода в Ярцеве (Красноярский край, Россия) (192 км)
Погода в Боре (Красноярский край, Россия) (193 км)
Погода в Ворогове (Красноярский край, Россия) (204 км)
Погода в Назимово (Красноярский край, Россия) (215 км)
Погода в Усть-Камо (Эвенкия, Россия) (224 км)
Погода в Бахте (Красноярский край, Россия) (283 км)
Погода в Сыме (Красноярский край, Россия) (285 км)

Пояснения к столбцам:

Ветер - указаны скорость ветра в м/с - средняя за 10 мин, порывы в срок и между сроками (в фигурных скобках) и направление, откуда дует ветер: С - северный, СВ - северо-восточный, В - восточный, ЮВ - юго-восточный, Ю - южный, ЮЗ - юго-западный, З - западный, СЗ - северо-западный.
Видимость - горизонтальная дальность видимости в метрах или километрах. При видимости от 1 до 10 км при отсутствии осадков обычно наблюдается дымка, при ухудшении видимости до 1 км и менее - туман. В сухую погоду видимость может ухудшаться дымом, пылью или мглою.
Явления - указаны атмосферные явления, наблюдавшиеся в срок или в последний час перед сроком; фигурными скобками обозначены явления, наблюдавшиеся между сроками (за 1-3 часа до срока); квадратными скобками обозначены град или гололедные отложения с указанием их диаметра в мм.
Облачность - указаны через наклонную черту общая и нижняя облачность в баллах и высота нижней границы облаков в метрах; квадратными скобками обозначены формы облаков: Ci - перистые, Cs - перисто-слоистые, Cc - перисто-кучевые, Ac - высококучевые, As - высокослоистые, Sc - слоисто-кучевые, Ns - слоисто-дождевые, Cu - кучевые, Cb - кучево-дождевые. Подробнее классификацию облаков см. в Атласе облаков (PDF).
T - Температура воздуха - температура, измеренная на высоте 2 м над землей.
Td - Температура точки росы - температура, при понижении до которой содержащийся в воздухе водяной пар достигнет насыщения.
f - Относительная влажность воздуха - влажноcть воздуха, измеренная на высоте 2 м над землей.
Te - Эффективная температура - температура, которую ощущает одетый по сезону человек в тени. Характеристика душности погоды. При расчете учитывается влияние влажности воздуха и скорости ветра на теплоощущения человека.
Tes - Эффективная температура на солнце - температура, которую ощущает человек, с поправкой на солнечный нагрев. Характеристика знойности погоды. Зависит от высоты солнца над горизонтом, облачности и скорости ветра. Ночью, в пасмурную погоду, а также при ветре 12 м/с и более поправка равна нулю.
P - Атмосферное давление - приведенное к уровню моря атмосферное давление.
Po - Атмосферное давление - измеренное на уровне метеостанции атмосферное давление.
Tmin - Минимальная температура - минимум температуры воздуха на высоте 2 м над землей.
Tmax - Максимальная температура - максимум температуры воздуха на высоте 2 м над землей.
R - Количество осадков - Количество выпавших осадков за период времени, мм. При наведении курсора мыши на число - период времени, за который выпало указанное количество осадков.
R24 - Количество осадков - Количество выпавших осадков за 24 часа, мм.
S - Снежный покров - Высота снежного покрова, см. При наведении курсора мыши на число - состояние снежного покрова и степень покрытия местности в баллах.